Satellite: OKEAN-4 Catalog number: 23317 Epoch time: 09135.84130994 Element set: 908 Inclination: 082.5396 deg RA of node: 004.6748 deg Eccentricity: 0.0023687 Arg of perigee: 109.0696 deg Mean anomaly: 251.3060 deg Mean motion: 14.82695297 rev/day Decay rate: 6.3e-07 rev/day^2 Epoch rev: 78757 Checksum: 336
Satellite: NOAA-14 Catalog number: 23455 Epoch time: 09135.82758567 Element set: 0619 Inclination: 098.9096 deg RA of node: 213.6184 deg Eccentricity: 0.0008546 Arg of perigee: 283.6328 deg Mean anomaly: 076.3872 deg Mean motion: 14.13764428 rev/day Decay rate: 2.36e-06 rev/day^2 Epoch rev: 74135 Checksum: 341
Satellite: NOAA-17 Catalog number: 27453 Epoch time: 09135.82080391 Element set: 0413 Inclination: 098.4862 deg RA of node: 196.0015 deg Eccentricity: 0.0011203 Arg of perigee: 213.8898 deg Mean anomaly: 146.1539 deg Mean motion: 14.24063051 rev/day Decay rate: 8.6e-07 rev/day^2 Epoch rev: 35814 Checksum: 292
Satellite: NOAA-15 Catalog number: 25338 Epoch time: 09135.81877148 Element set: 0926 Inclination: 098.5826 deg RA of node: 125.7387 deg Eccentricity: 0.0011181 Arg of perigee: 147.5084 deg Mean anomaly: 212.6759 deg Mean motion: 14.24758602 rev/day Decay rate: -4.7e-07 rev/day^2 Epoch rev: 57216 Checksum: 333
Satellite: MET-2/21 Catalog number: 22782 Epoch time: 09135.78253809 Element set: 0458 Inclination: 082.5484 deg RA of node: 207.7084 deg Eccentricity: 0.0024094 Arg of perigee: 078.3330 deg Mean anomaly: 282.0525 deg Mean motion: 13.83636061 rev/day Decay rate: -5.0e-07 rev/day^2 Epoch rev: 79312 Checksum: 305
Satellite: NOAA-11 Catalog number: 19531 Epoch time: 09135.67792881 Element set: 0624 Inclination: 098.7825 deg RA of node: 226.1317 deg Eccentricity: 0.0011237 Arg of perigee: 197.5610 deg Mean anomaly: 162.5192 deg Mean motion: 14.14894591 rev/day Decay rate: -1.16e-06 rev/day^2 Epoch rev: 06492 Checksum: 315
Satellite: NOAA-10 Catalog number: 16969 Epoch time: 09135.63172946 Element set: 0615 Inclination: 098.6926 deg RA of node: 162.4537 deg Eccentricity: 0.0011482 Arg of perigee: 293.9740 deg Mean anomaly: 066.0229 deg Mean motion: 14.27385928 rev/day Decay rate: -6.5e-07 rev/day^2 Epoch rev: 17886 Checksum: 345
/EX SB KEPS @ AMSAT $ORB09136.M Orbital Elements 09136.MISC
HR AMSAT ORBITAL ELEMENTS FOR MANNED AND MISCELLANEOUS SATELLITES FROM WA5QGD FORT WORTH,TX May 16, 2009 Send Subscribe/unsubscribe to KEPS at http://www.amsat.org/mailman/listinfo/keps BID: ORB09136.M TO ALL RADIO AMATEURS BT
Satellite: ISS Catalog number: 25544 Epoch time: 09136.49085769 Element set: 862 Inclination: 051.6394 deg RA of node: 109.4812 deg Eccentricity: 0.0009412 Arg of perigee: 010.1369 deg Mean anomaly: 086.6470 deg Mean motion: 15.72812885 rev/day Decay rate: 1.1563e-04 rev/day^2 Epoch rev: 60096 Checksum: 314
Satellite: RS-30 Catalog number: 32953 Epoch time: 09135.91337976 Element set: 0307 Inclination: 082.4989 deg RA of node: 276.6806 deg Eccentricity: 0.0018165 Arg of perigee: 248.0287 deg Mean anomaly: 111.8860 deg Mean motion: 12.43000935 rev/day Decay rate: 1.0e-07 rev/day^2 Epoch rev: 04438 Checksum: 308
Satellite: CAPE1 Catalog number: 31130 Epoch time: 09135.89313942 Element set: 0602 Inclination: 097.9944 deg RA of node: 190.4308 deg Eccentricity: 0.0103179 Arg of perigee: 026.4152 deg Mean anomaly: 334.2244 deg Mean motion: 14.52055971 rev/day Decay rate: 4.0e-08 rev/day^2 Epoch rev: 11000 Checksum: 260
Satellite: FALCON Catalog number: 30776 Epoch time: 09135.88677939 Element set: 0569 Inclination: 035.4346 deg RA of node: 295.3806 deg Eccentricity: 0.0001859 Arg of perigee: 347.0418 deg Mean anomaly: 013.0250 deg Mean motion: 15.03237171 rev/day Decay rate: 3.58e-06 rev/day^2 Epoch rev: 12023 Checksum: 300
Satellite: AAUSAT2 Catalog number: 32788 Epoch time: 09135.85802207 Element set: 358 Inclination: 097.9466 deg RA of node: 200.0074 deg Eccentricity: 0.0016985 Arg of perigee: 135.8720 deg Mean anomaly: 224.3828 deg Mean motion: 14.81717603 rev/day Decay rate: 9.8e-07 rev/day^2 Epoch rev: 5666 Checksum: 322
Satellite: MAST Catalog number: 31126 Epoch time: 09135.74854816 Element set: 0596 Inclination: 097.9905 deg RA of node: 192.0336 deg Eccentricity: 0.0095357 Arg of perigee: 021.1493 deg Mean anomaly: 339.3627 deg Mean motion: 14.53495166 rev/day Decay rate: 7.8e-07 rev/day^2 Epoch rev: 11032 Checksum: 315
Satellite: DO-64 Catalog number: 32789 Epoch time: 09135.74420960 Element set: 367 Inclination: 097.9490 deg RA of node: 200.0342 deg Eccentricity: 0.0016482 Arg of perigee: 133.7184 deg Mean anomaly: 226.5397 deg Mean motion: 14.81694797 rev/day Decay rate: 6.40e-06 rev/day^2 Epoch rev: 5664 Checksum: 333
Satellite: CO-58 Catalog number: 28895 Epoch time: 09135.71091062 Element set: 0303 Inclination: 098.0654 deg RA of node: 027.2297 deg Eccentricity: 0.0019210 Arg of perigee: 089.7058 deg Mean anomaly: 270.6350 deg Mean motion: 14.59766904 rev/day Decay rate: 1.34e-06 rev/day^2 Epoch rev: 18899 Checksum: 333
Satellite: COMPASS Catalog number: 32787 Epoch time: 09135.07703906 Element set: 0358 Inclination: 097.9439 deg RA of node: 199.1765 deg Eccentricity: 0.0016631 Arg of perigee: 136.5483 deg Mean anomaly: 223.7051 deg Mean motion: 14.81596020 rev/day Decay rate: 3.59e-06 rev/day^2 Epoch rev: 05654 Checksum: 321
Satellite: CO-66 Catalog number: 32791 Epoch time: 09135.04854398 Element set: 0352 Inclination: 097.9468 deg RA of node: 199.1812 deg Eccentricity: 0.0016820 Arg of perigee: 134.7813 deg Mean anomaly: 225.4760 deg Mean motion: 14.81427891 rev/day Decay rate: 1.41e-06 rev/day^2 Epoch rev: 05650 Checksum: 324
Satellite: HUBBLE Catalog number: 20580 Epoch time: 09134.53767208 Element set: 0387 Inclination: 028.4844 deg RA of node: 321.9009 deg Eccentricity: 0.0002635 Arg of perigee: 308.8673 deg Mean anomaly: 091.8764 deg Mean motion: 15.00571298 rev/day Decay rate: 4.2590e-04 rev/day^2 Epoch rev: 84479 Checksum: 325
/EX